Wetterdaten: Woche 26.12.16 - 01.01.17 (KW52)
Datum Zeit Temp. I. Temp. A. Feuchte I. Feuchte A. Luftdruck Regen Wind Richtung Sonnenschein UV Solar Taupunkt Windchill Windben
26.12.2016 00:00 24,3 C 5,7 C 59 % 97 % 1026,8 hPa 0,0 l/m 11,0 km/h (2 Bft) W-SW 0,00 h 0,0 UV-I 0 W/m 5,3 C 2,3 C 17,9 km/h (3 Bft)
26.12.2016 01:00 24,3 C 5,7 C 60 % 97 % 1027,0 hPa 0,2 l/m 4,8 km/h (1 Bft) W-SW 0,00 h 0,0 UV-I 0 W/m 5,2 C 4,8 C 8,7 km/h (2 Bft)
26.12.2016 02:00 24,2 C 5,6 C 61 % 97 % 1027,1 hPa 0,0 l/m 1,6 km/h (1 Bft) SW 0,00 h 0,0 UV-I 0 W/m 5,2 C 5,6 C 4,3 km/h (1 Bft)
26.12.2016 03:00 24,1 C 5,6 C 62 % 97 % 1027,2 hPa 0,0 l/m 4,9 km/h (1 Bft) W-SW 0,00 h 0,0 UV-I 0 W/m 5,2 C 5,2 C 9,2 km/h (2 Bft)
26.12.2016 04:00 24,0 C 5,6 C 62 % 97 % 1027,1 hPa 0,0 l/m 7,8 km/h (2 Bft) W-SW 0,00 h 0,0 UV-I 0 W/m 5,2 C 4,0 C 13,4 km/h (3 Bft)
26.12.2016 05:00 23,9 C 5,6 C 63 % 97 % 1027,0 hPa 0,2 l/m 7,4 km/h (2 Bft) SW 0,00 h 0,0 UV-I 0 W/m 5,1 C 4,2 C 12,5 km/h (3 Bft)
26.12.2016 06:00 23,9 C 5,6 C 62 % 96 % 1026,8 hPa 0,0 l/m 6,1 km/h (2 Bft) SW 0,00 h 0,0 UV-I 0 W/m 5,0 C 4,8 C 11,1 km/h (2 Bft)
26.12.2016 07:00 23,8 C 5,5 C 61 % 96 % 1026,5 hPa 0,0 l/m 4,2 km/h (1 Bft) W-SW 0,00 h 0,0 UV-I 0 W/m 4,9 C 5,1 C 8,8 km/h (2 Bft)
26.12.2016 08:00 23,7 C 5,6 C 61 % 96 % 1026,3 hPa 0,0 l/m 5,7 km/h (1 Bft) W-SW 0,00 h 0,0 UV-I 8 W/m 4,9 C 4,9 C 11,1 km/h (2 Bft)
26.12.2016 09:00 23,9 C 5,5 C 61 % 96 % 1026,1 hPa 0,0 l/m 4,0 km/h (1 Bft) SW 0,00 h 0,0 UV-I 14 W/m 5,0 C 5,2 C 8,1 km/h (2 Bft)
26.12.2016 10:00 24,1 C 6,3 C 62 % 96 % 1026,0 hPa 0,0 l/m 8,8 km/h (2 Bft) SW 0,52 h 0,6 UV-I 152 W/m 5,8 C 4,1 C 15,3 km/h (3 Bft)
26.12.2016 11:00 24,1 C 6,8 C 61 % 95 % 1026,0 hPa 0,0 l/m 5,8 km/h (2 Bft) SW 0,37 h 0,7 UV-I 133 W/m 6,1 C 6,1 C 10,8 km/h (2 Bft)
26.12.2016 12:00 24,0 C 6,5 C 60 % 96 % 1025,7 hPa 0,0 l/m 8,2 km/h (2 Bft) W-SW 0,00 h 0,5 UV-I 69 W/m 5,9 C 4,5 C 14,9 km/h (3 Bft)
26.12.2016 13:00 24,1 C 6,3 C 61 % 96 % 1025,4 hPa 0,0 l/m 10,0 km/h (2 Bft) W-SW 0,00 h 0,0 UV-I 38 W/m 5,7 C 3,5 C 16,4 km/h (3 Bft)
26.12.2016 14:00 24,4 C 6,3 C 60 % 96 % 1025,8 hPa 0,2 l/m 6,3 km/h (2 Bft) W-SW 0,00 h 0,0 UV-I 10 W/m 5,7 C 5,3 C 11,6 km/h (2 Bft)
26.12.2016 15:00 24,4 C 6,3 C 60 % 96 % 1025,8 hPa 0,2 l/m 7,0 km/h (2 Bft) SW 0,00 h 0,0 UV-I 10 W/m 5,7 C 5,2 C 12,7 km/h (3 Bft)
26.12.2016 16:00 24,4 C 6,4 C 59 % 97 % 1026,1 hPa 0,2 l/m 8,2 km/h (2 Bft) W-SW 0,00 h 0,0 UV-I 0 W/m 5,9 C 4,7 C 14,1 km/h (3 Bft)
26.12.2016 17:00 24,6 C 5,9 C 61 % 93 % 1027,2 hPa 0,0 l/m 9,4 km/h (2 Bft) W 0,00 h 0,0 UV-I 0 W/m 4,9 C 3,6 C 15,5 km/h (3 Bft)
26.12.2016 18:00 24,4 C 5,3 C 60 % 89 % 1028,6 hPa 0,0 l/m 7,7 km/h (2 Bft) W-NW 0,00 h 0,0 UV-I 0 W/m 3,6 C 3,8 C 12,4 km/h (3 Bft)
26.12.2016 19:00 24,4 C 4,3 C 61 % 85 % 1029,9 hPa 0,0 l/m 7,6 km/h (2 Bft) W 0,00 h 0,0 UV-I 0 W/m 2,0 C 2,5 C 12,3 km/h (3 Bft)
26.12.2016 20:00 24,2 C 3,4 C 61 % 85 % 1030,2 hPa 0,0 l/m 8,3 km/h (2 Bft) W 0,00 h 0,0 UV-I 0 W/m 1,1 C 1,5 C 13,0 km/h (3 Bft)
26.12.2016 21:00 24,3 C 3,1 C 61 % 89 % 1030,6 hPa 0,2 l/m 9,2 km/h (2 Bft) W-SW 0,00 h 0,0 UV-I 0 W/m 1,5 C 0,5 C 15,3 km/h (3 Bft)
26.12.2016 22:00 24,6 C 2,6 C 60 % 90 % 1031,0 hPa 0,0 l/m 6,8 km/h (2 Bft) W-SW 0,00 h 0,0 UV-I 0 W/m 1,2 C 1,5 C 12,3 km/h (3 Bft)
26.12.2016 23:00 24,7 C 2,4 C 60 % 90 % 1031,5 hPa 0,0 l/m 5,6 km/h (1 Bft) W-SW 0,00 h 0,0 UV-I 0 W/m 1,0 C 1,5 C 11,4 km/h (2 Bft)
27.12.2016 00:00 24,6 C 1,7 C 60 % 88 % 1031,7 hPa 0,0 l/m 6,0 km/h (2 Bft) W-SW 0,00 h 0,0 UV-I 0 W/m -0,0 C 0,8 C 12,1 km/h (2 Bft)
27.12.2016 01:00 24,5 C 1,4 C 60 % 88 % 1032,4 hPa 0,0 l/m 5,3 km/h (1 Bft) W-SW 0,00 h 0,0 UV-I 0 W/m -0,4 C 0,6 C 9,9 km/h (2 Bft)
27.12.2016 02:00 24,4 C 1,3 C 61 % 88 % 1033,1 hPa 0,0 l/m 3,9 km/h (1 Bft) W-SW 0,00 h 0,0 UV-I 0 W/m -0,4 C 1,2 C 8,3 km/h (2 Bft)
27.12.2016 03:00 24,4 C 1,3 C 60 % 88 % 1033,0 hPa 0,0 l/m 6,5 km/h (2 Bft) W-SW 0,00 h 0,0 UV-I 0 W/m -0,5 C -0,2 C 9,8 km/h (2 Bft)
27.12.2016 04:00 24,4 C 1,3 C 60 % 87 % 1032,8 hPa 0,0 l/m 12,9 km/h (3 Bft) W 0,00 h 0,0 UV-I 0 W/m -0,6 C -4,0 C 20,6 km/h (4 Bft)
27.12.2016 05:00 24,3 C 1,4 C 60 % 87 % 1032,9 hPa 0,0 l/m 12,0 km/h (2 Bft) W-SW 0,00 h 0,0 UV-I 0 W/m -0,6 C -3,2 C 19,0 km/h (3 Bft)
27.12.2016 06:00 24,2 C 1,4 C 61 % 88 % 1033,2 hPa 0,0 l/m 12,1 km/h (2 Bft) W-SW 0,00 h 0,0 UV-I 0 W/m -0,3 C -3,3 C 19,0 km/h (3 Bft)
27.12.2016 07:00 24,0 C 1,4 C 61 % 89 % 1033,2 hPa 0,0 l/m 12,0 km/h (2 Bft) W-SW 0,00 h 0,0 UV-I 0 W/m -0,2 C -3,2 C 18,8 km/h (3 Bft)
27.12.2016 08:00 23,8 C 1,4 C 61 % 90 % 1033,6 hPa 0,0 l/m 10,3 km/h (2 Bft) W-SW 0,00 h 0,0 UV-I 5 W/m -0,1 C -2,0 C 17,9 km/h (3 Bft)
27.12.2016 09:00 24,2 C 1,5 C 61 % 90 % 1034,3 hPa 0,0 l/m 8,2 km/h (2 Bft) W-SW 0,00 h 0,0 UV-I 7 W/m 0,1 C -0,5 C 14,0 km/h (3 Bft)
27.12.2016 10:00 24,1 C 1,5 C 61 % 92 % 1035,1 hPa 0,0 l/m 3,3 km/h (1 Bft) SW 0,00 h 0,0 UV-I 22 W/m 0,3 C 1,4 C 7,2 km/h (2 Bft)
27.12.2016 11:00 23,8 C 1,9 C 59 % 92 % 1035,1 hPa 0,0 l/m 9,8 km/h (2 Bft) W-SW 0,00 h 0,0 UV-I 61 W/m 0,7 C -1,1 C 16,4 km/h (3 Bft)
27.12.2016 12:00 23,8 C 2,5 C 59 % 90 % 1035,2 hPa 0,0 l/m 9,6 km/h (2 Bft) W-SW 0,00 h 0,5 UV-I 78 W/m 1,0 C -0,3 C 15,0 km/h (3 Bft)
27.12.2016 13:00 23,9 C 3,0 C 58 % 87 % 1035,3 hPa 0,0 l/m 10,7 km/h (2 Bft) W 0,00 h 0,5 UV-I 44 W/m 1,0 C -0,5 C 16,2 km/h (3 Bft)
27.12.2016 14:00 23,8 C 3,2 C 56 % 85 % 1036,0 hPa 0,0 l/m 10,9 km/h (2 Bft) W 0,00 h 0,0 UV-I 36 W/m 1,0 C -0,3 C 17,2 km/h (3 Bft)
27.12.2016 15:00 23,4 C 3,4 C 56 % 84 % 1036,9 hPa 0,0 l/m 10,4 km/h (2 Bft) W-NW 0,00 h 0,0 UV-I 23 W/m 1,0 C 0,1 C 16,8 km/h (3 Bft)
27.12.2016 16:00 23,4 C 3,4 C 56 % 84 % 1037,3 hPa 0,0 l/m 8,7 km/h (2 Bft) W 0,00 h 0,0 UV-I 5 W/m 0,9 C 1,2 C 14,5 km/h (3 Bft)
27.12.2016 17:00 23,6 C 3,0 C 56 % 86 % 1037,5 hPa 0,0 l/m 5,2 km/h (1 Bft) W 0,00 h 0,0 UV-I 0 W/m 1,0 C 2,6 C 9,3 km/h (2 Bft)
27.12.2016 18:00 24,1 C 2,9 C 57 % 89 % 1038,0 hPa 0,0 l/m 6,8 km/h (2 Bft) W 0,00 h 0,0 UV-I 0 W/m 1,3 C 1,7 C 11,2 km/h (2 Bft)
27.12.2016 19:00 24,2 C 2,7 C 56 % 93 % 1038,3 hPa 0,0 l/m 4,9 km/h (1 Bft) W 0,00 h 0,0 UV-I 0 W/m 1,6 C 2,1 C 8,7 km/h (2 Bft)
27.12.2016 20:00 24,4 C 2,8 C 56 % 93 % 1038,6 hPa 0,0 l/m 5,2 km/h (1 Bft) W 0,00 h 0,0 UV-I 0 W/m 1,8 C 2,4 C 9,9 km/h (2 Bft)
27.12.2016 21:00 24,4 C 3,3 C 56 % 93 % 1039,0 hPa 0,0 l/m 6,4 km/h (2 Bft) W-NW 0,00 h 0,0 UV-I 0 W/m 2,3 C 2,4 C 11,2 km/h (2 Bft)
27.12.2016 22:00 24,6 C 3,6 C 57 % 92 % 1039,1 hPa 0,0 l/m 9,0 km/h (2 Bft) W 0,00 h 0,0 UV-I 0 W/m 2,5 C 1,2 C 13,4 km/h (3 Bft)
27.12.2016 23:00 24,7 C 3,6 C 57 % 92 % 1039,1 hPa 0,0 l/m 10,0 km/h (2 Bft) W-NW 0,00 h 0,0 UV-I 0 W/m 2,4 C 0,6 C 15,5 km/h (3 Bft)
28.12.2016 00:00 24,4 C 3,5 C 58 % 91 % 1039,1 hPa 0,0 l/m 10,3 km/h (2 Bft) W-NW 0,00 h 0,0 UV-I 0 W/m 2,3 C 0,3 C 16,5 km/h (3 Bft)
28.12.2016 01:00 24,5 C 3,6 C 58 % 91 % 1039,2 hPa 0,0 l/m 10,1 km/h (2 Bft) W 0,00 h 0,0 UV-I 0 W/m 2,4 C 0,6 C 14,3 km/h (3 Bft)
28.12.2016 02:00 24,4 C 3,7 C 58 % 91 % 1039,2 hPa 0,0 l/m 11,2 km/h (2 Bft) W-NW 0,00 h 0,0 UV-I 0 W/m 2,5 C -0,1 C 17,5 km/h (3 Bft)
28.12.2016 03:00 24,4 C 3,6 C 59 % 92 % 1039,1 hPa 0,0 l/m 11,5 km/h (2 Bft) W-NW 0,00 h 0,0 UV-I 0 W/m 2,5 C -0,3 C 17,6 km/h (3 Bft)
28.12.2016 04:00 24,4 C 3,8 C 59 % 91 % 1039,1 hPa 0,0 l/m 13,6 km/h (3 Bft) W-NW 0,00 h 0,0 UV-I 0 W/m 2,4 C -1,5 C 19,6 km/h (3 Bft)
28.12.2016 05:00 24,2 C 3,9 C 59 % 88 % 1039,2 hPa 0,0 l/m 12,1 km/h (2 Bft) NW 0,00 h 0,0 UV-I 0 W/m 2,1 C -0,3 C 18,2 km/h (3 Bft)
28.12.2016 06:00 24,1 C 3,8 C 59 % 87 % 1039,1 hPa 0,0 l/m 12,0 km/h (2 Bft) W-NW 0,00 h 0,0 UV-I 0 W/m 1,9 C -0,4 C 18,5 km/h (3 Bft)
28.12.2016 07:00 23,9 C 3,7 C 59 % 88 % 1039,6 hPa 0,0 l/m 8,1 km/h (2 Bft) W-NW 0,00 h 0,0 UV-I 0 W/m 1,8 C 1,7 C 13,4 km/h (3 Bft)
28.12.2016 08:00 23,9 C 3,6 C 59 % 89 % 1040,0 hPa 0,0 l/m 7,0 km/h (2 Bft) W-NW 0,00 h 0,0 UV-I 7 W/m 2,0 C 2,4 C 11,5 km/h (2 Bft)
28.12.2016 09:00 23,9 C 3,5 C 59 % 90 % 1040,7 hPa 0,0 l/m 7,0 km/h (2 Bft) W-NW 0,00 h 0,0 UV-I 16 W/m 2,1 C 2,4 C 10,6 km/h (2 Bft)
28.12.2016 10:00 24,0 C 3,7 C 59 % 90 % 1041,1 hPa 0,0 l/m 9,2 km/h (2 Bft) W-NW 0,00 h 0,0 UV-I 30 W/m 2,2 C 1,4 C 14,0 km/h (3 Bft)
28.12.2016 11:00 24,1 C 4,2 C 59 % 88 % 1041,1 hPa 0,0 l/m 10,5 km/h (2 Bft) W-NW 0,00 h 0,5 UV-I 61 W/m 2,4 C 1,0 C 15,9 km/h (3 Bft)
28.12.2016 12:00 23,8 C 4,2 C 55 % 89 % 1041,0 hPa 0,0 l/m 10,7 km/h (2 Bft) W-NW 0,00 h 0,5 UV-I 63 W/m 2,6 C 1,0 C 15,3 km/h (3 Bft)
28.12.2016 13:00 23,6 C 4,1 C 55 % 90 % 1040,5 hPa 0,0 l/m 9,4 km/h (2 Bft) W-NW 0,00 h 0,5 UV-I 53 W/m 2,6 C 1,7 C 13,7 km/h (3 Bft)
28.12.2016 14:00 23,7 C 4,4 C 54 % 89 % 1040,2 hPa 0,2 l/m 8,5 km/h (2 Bft) NW 0,00 h 0,0 UV-I 49 W/m 2,7 C 2,4 C 12,9 km/h (3 Bft)
28.12.2016 15:00 23,7 C 4,4 C 54 % 88 % 1040,1 hPa 0,0 l/m 8,0 km/h (2 Bft) W-NW 0,00 h 0,0 UV-I 17 W/m 2,5 C 2,7 C 12,5 km/h (3 Bft)
28.12.2016 16:00 23,8 C 4,0 C 54 % 88 % 1040,2 hPa 0,0 l/m 6,7 km/h (2 Bft) W-NW 0,00 h 0,0 UV-I 6 W/m 2,3 C 2,9 C 10,7 km/h (2 Bft)
28.12.2016 17:00 23,8 C 3,8 C 55 % 89 % 1040,5 hPa 0,0 l/m 5,7 km/h (1 Bft) W-NW 0,00 h 0,0 UV-I 0 W/m 2,2 C 3,2 C 9,3 km/h (2 Bft)
28.12.2016 18:00 24,1 C 3,7 C 56 % 90 % 1040,8 hPa 0,0 l/m 6,8 km/h (2 Bft) W-NW 0,00 h 0,0 UV-I 0 W/m 2,2 C 2,8 C 10,2 km/h (2 Bft)
28.12.2016 19:00 24,3 C 3,6 C 56 % 91 % 1041,3 hPa 0,0 l/m 4,6 km/h (1 Bft) NW 0,00 h 0,0 UV-I 0 W/m 2,2 C 3,3 C 7,3 km/h (2 Bft)
28.12.2016 20:00 24,2 C 3,5 C 56 % 91 % 1041,7 hPa 0,0 l/m 4,2 km/h (1 Bft) NW 0,00 h 0,0 UV-I 0 W/m 2,2 C 3,4 C 7,4 km/h (2 Bft)
28.12.2016 21:00 24,4 C 3,3 C 56 % 91 % 1041,7 hPa 0,0 l/m 3,9 km/h (1 Bft) NW 0,00 h 0,0 UV-I 0 W/m 2,0 C 3,2 C 7,1 km/h (2 Bft)
28.12.2016 22:00 24,6 C 2,9 C 56 % 92 % 1041,8 hPa 0,0 l/m 4,2 km/h (1 Bft) N-NW 0,00 h 0,0 UV-I 0 W/m 1,7 C 2,9 C 7,7 km/h (2 Bft)
28.12.2016 23:00 24,7 C 2,8 C 56 % 92 % 1041,9 hPa 0,0 l/m 1,0 km/h (0 Bft) NW 0,00 h 0,0 UV-I 0 W/m 1,6 C 2,7 C 2,0 km/h (1 Bft)
29.12.2016 00:00 24,5 C 2,8 C 57 % 92 % 1041,9 hPa 0,0 l/m 1,1 km/h (0 Bft) N 0,00 h 0,0 UV-I 0 W/m 1,6 C 2,8 C 2,5 km/h (1 Bft)
29.12.2016 01:00 24,4 C 2,9 C 59 % 91 % 1041,5 hPa 0,0 l/m 1,2 km/h (1 Bft) N-NW 0,00 h 0,0 UV-I 0 W/m 1,6 C 2,9 C 2,1 km/h (1 Bft)
29.12.2016 02:00 24,6 C 2,9 C 59 % 91 % 1041,4 hPa 0,0 l/m 0,0 km/h (0 Bft) N 0,00 h 0,0 UV-I 0 W/m 1,5 C 2,9 C 0,0 km/h (0 Bft)
29.12.2016 03:00 24,6 C 2,8 C 59 % 91 % 1041,5 hPa 0,0 l/m 0,0 km/h (0 Bft) N 0,00 h 0,0 UV-I 0 W/m 1,5 C 2,8 C 0,0 km/h (0 Bft)
29.12.2016 04:00 24,5 C 2,7 C 59 % 91 % 1041,6 hPa 0,0 l/m 0,0 km/h (0 Bft) N 0,00 h 0,0 UV-I 0 W/m 1,4 C 2,7 C 0,0 km/h (0 Bft)
29.12.2016 05:00 24,4 C 2,4 C 59 % 92 % 1041,5 hPa 0,0 l/m 0,0 km/h (0 Bft) N 0,00 h 0,0 UV-I 0 W/m 1,2 C 2,4 C 0,0 km/h (0 Bft)
29.12.2016 06:00 24,2 C 1,7 C 59 % 92 % 1041,5 hPa 0,0 l/m 0,0 km/h (0 Bft) N 0,00 h 0,0 UV-I 0 W/m 0,5 C 1,7 C 0,0 km/h (0 Bft)
29.12.2016 07:00 24,0 C 1,0 C 59 % 93 % 1041,8 hPa 0,0 l/m 0,0 km/h (0 Bft) N 0,00 h 0,0 UV-I 0 W/m -0,0 C 1,0 C 0,0 km/h (0 Bft)
29.12.2016 08:00 24,1 C 0,9 C 59 % 94 % 1042,1 hPa 0,0 l/m 0,0 km/h (0 Bft) N 0,00 h 0,0 UV-I 10 W/m 0,1 C 0,9 C 0,0 km/h (0 Bft)
29.12.2016 09:00 23,9 C 1,4 C 58 % 95 % 1042,3 hPa 0,0 l/m 0,0 km/h (0 Bft) N 0,00 h 0,0 UV-I 31 W/m 0,7 C 1,4 C 0,0 km/h (0 Bft)
29.12.2016 10:00 23,9 C 2,3 C 56 % 96 % 1042,4 hPa 0,0 l/m 0,0 km/h (0 Bft) N 0,17 h 0,6 UV-I 92 W/m 1,7 C 2,3 C 0,0 km/h (0 Bft)
29.12.2016 11:00 23,9 C 4,3 C 55 % 87 % 1042,0 hPa 0,0 l/m 0,0 km/h (0 Bft) S-SO 0,73 h 0,7 UV-I 242 W/m 2,3 C 4,3 C 0,2 km/h (0 Bft)
29.12.2016 12:00 23,8 C 3,9 C 53 % 84 % 1041,9 hPa 0,0 l/m 0,3 km/h (0 Bft) SO 0,08 h 0,6 UV-I 101 W/m 1,5 C 3,9 C 1,5 km/h (1 Bft)
29.12.2016 13:00 23,7 C 3,7 C 52 % 84 % 1041,4 hPa 0,0 l/m 0,4 km/h (0 Bft) SO 0,00 h 0,5 UV-I 65 W/m 1,2 C 3,7 C 1,1 km/h (0 Bft)
29.12.2016 14:00 23,9 C 3,8 C 52 % 82 % 1041,2 hPa 0,0 l/m 0,0 km/h (0 Bft) N 0,00 h 0,0 UV-I 56 W/m 1,0 C 3,8 C 0,0 km/h (0 Bft)
29.12.2016 15:00 24,1 C 4,0 C 54 % 75 % 1041,1 hPa 0,0 l/m 0,1 km/h (0 Bft) SO 0,00 h 0,0 UV-I 43 W/m -0,1 C 4,0 C 0,3 km/h (0 Bft)
29.12.2016 16:00 23,9 C 3,1 C 55 % 77 % 1040,7 hPa 0,0 l/m 0,0 km/h (0 Bft) N 0,00 h 0,0 UV-I 9 W/m -0,5 C 3,1 C 0,0 km/h (0 Bft)
29.12.2016 17:00 23,9 C 0,9 C 56 % 83 % 1040,6 hPa 0,0 l/m 0,0 km/h (0 Bft) N 0,00 h 0,0 UV-I 0 W/m -1,7 C 0,9 C 0,0 km/h (0 Bft)
29.12.2016 18:00 24,1 C -0,8 C 56 % 87 % 1040,6 hPa 0,0 l/m 0,0 km/h (0 Bft) N 0,00 h 0,0 UV-I 0 W/m -2,6 C -0,8 C 0,0 km/h (0 Bft)
29.12.2016 19:00 24,2 C -1,7 C 57 % 89 % 1040,7 hPa 0,0 l/m 0,0 km/h (0 Bft) N 0,00 h 0,0 UV-I 0 W/m -3,3 C -1,7 C 0,0 km/h (0 Bft)
29.12.2016 20:00 24,1 C -2,4 C 57 % 91 % 1040,7 hPa 0,0 l/m 0,0 km/h (0 Bft) N 0,00 h 0,0 UV-I 0 W/m -3,7 C -2,4 C 0,0 km/h (0 Bft)
29.12.2016 21:00 24,2 C -3,0 C 58 % 91 % 1040,6 hPa 0,0 l/m 0,0 km/h (0 Bft) N 0,00 h 0,0 UV-I 0 W/m -4,2 C -3,0 C 0,0 km/h (0 Bft)
29.12.2016 22:00 24,3 C -3,6 C 59 % 92 % 1040,6 hPa 0,0 l/m 0,0 km/h (0 Bft) N 0,00 h 0,0 UV-I 0 W/m -4,7 C -3,6 C 0,0 km/h (0 Bft)
29.12.2016 23:00 24,4 C -4,0 C 59 % 92 % 1040,9 hPa 0,0 l/m 0,0 km/h (0 Bft) N 0,00 h 0,0 UV-I 0 W/m -5,1 C -4,0 C 0,0 km/h (0 Bft)
30.12.2016 00:00 24,2 C -4,5 C 59 % 92 % 1040,7 hPa 0,0 l/m 0,0 km/h (0 Bft) N 0,00 h 0,0 UV-I 0 W/m -5,6 C -4,5 C 0,0 km/h (0 Bft)
30.12.2016 01:00 24,1 C -5,1 C 60 % 92 % 1040,7 hPa 0,0 l/m 0,0 km/h (0 Bft) N 0,00 h 0,0 UV-I 0 W/m -6,1 C -5,1 C 0,0 km/h (0 Bft)
30.12.2016 02:00 24,1 C -5,4 C 60 % 93 % 1040,8 hPa 0,0 l/m 0,0 km/h (0 Bft) N 0,00 h 0,0 UV-I 0 W/m -6,4 C -5,4 C 0,0 km/h (0 Bft)
30.12.2016 03:00 24,2 C -5,6 C 60 % 93 % 1040,6 hPa 0,0 l/m 0,0 km/h (0 Bft) N 0,00 h 0,0 UV-I 0 W/m -6,6 C -5,6 C 0,0 km/h (0 Bft)
30.12.2016 04:00 24,2 C -6,0 C 60 % 93 % 1040,3 hPa 0,0 l/m 0,0 km/h (0 Bft) N 0,00 h 0,0 UV-I 0 W/m -7,0 C -6,0 C 0,0 km/h (0 Bft)
30.12.2016 05:00 24,2 C -6,3 C 60 % 93 % 1040,2 hPa 0,0 l/m 0,0 km/h (0 Bft) N 0,00 h 0,0 UV-I 0 W/m -7,2 C -6,3 C 0,0 km/h (0 Bft)
30.12.2016 06:00 24,1 C -6,4 C 60 % 93 % 1040,6 hPa 0,0 l/m 0,0 km/h (0 Bft) N 0,00 h 0,0 UV-I 0 W/m -7,4 C -6,4 C 0,0 km/h (0 Bft)
30.12.2016 07:00 24,1 C -6,7 C 60 % 93 % 1040,9 hPa 0,0 l/m 0,0 km/h (0 Bft) N 0,00 h 0,0 UV-I 0 W/m -7,6 C -6,7 C 0,0 km/h (0 Bft)
30.12.2016 08:00 23,9 C -6,9 C 60 % 93 % 1040,9 hPa 0,0 l/m 0,0 km/h (0 Bft) N 0,00 h 0,0 UV-I 18 W/m -7,8 C -6,9 C 0,0 km/h (0 Bft)
30.12.2016 09:00 23,8 C -4,8 C 60 % 94 % 1040,9 hPa 0,0 l/m 0,0 km/h (0 Bft) N 0,03 h 0,5 UV-I 105 W/m -5,6 C -4,8 C 0,0 km/h (0 Bft)
30.12.2016 10:00 23,8 C -2,4 C 60 % 93 % 1040,9 hPa 0,0 l/m 0,0 km/h (0 Bft) N 0,97 h 0,6 UV-I 197 W/m -3,5 C -2,4 C 0,0 km/h (0 Bft)
30.12.2016 11:00 24,1 C 0,8 C 61 % 89 % 1040,5 hPa 0,0 l/m 0,0 km/h (0 Bft) N 1,00 h 0,8 UV-I 269 W/m -0,8 C 0,8 C 0,0 km/h (0 Bft)
30.12.2016 12:00 24,1 C 2,4 C 60 % 82 % 1040,0 hPa 0,0 l/m 0,0 km/h (0 Bft) N 1,00 h 0,9 UV-I 285 W/m -0,4 C 2,4 C 0,0 km/h (0 Bft)
30.12.2016 13:00 24,0 C 3,2 C 59 % 72 % 1039,5 hPa 0,0 l/m 0,0 km/h (0 Bft) N 1,00 h 0,7 UV-I 243 W/m -1,5 C 3,2 C 0,1 km/h (0 Bft)
30.12.2016 14:00 24,0 C 3,3 C 59 % 62 % 1039,1 hPa 0,0 l/m 0,0 km/h (0 Bft) S 0,15 h 0,5 UV-I 118 W/m -3,3 C 3,3 C 0,8 km/h (0 Bft)
30.12.2016 15:00 24,0 C 2,3 C 55 % 58 % 1038,8 hPa 0,0 l/m 0,0 km/h (0 Bft) S 0,00 h 0,0 UV-I 49 W/m -5,1 C 2,3 C 1,0 km/h (0 Bft)
30.12.2016 16:00 23,7 C 1,2 C 52 % 65 % 1038,9 hPa 0,0 l/m 0,0 km/h (0 Bft) N 0,00 h 0,0 UV-I 10 W/m -4,7 C 1,2 C 0,0 km/h (0 Bft)
30.12.2016 17:00 24,0 C -0,6 C 53 % 74 % 1039,0 hPa 0,0 l/m 0,0 km/h (0 Bft) N 0,00 h 0,0 UV-I 0 W/m -4,7 C -0,6 C 0,0 km/h (0 Bft)
30.12.2016 18:00 24,1 C -1,9 C 53 % 82 % 1038,7 hPa 0,0 l/m 0,0 km/h (0 Bft) N 0,00 h 0,0 UV-I 0 W/m -4,5 C -1,9 C 0,0 km/h (0 Bft)
30.12.2016 19:00 24,1 C -3,0 C 54 % 85 % 1038,8 hPa 0,0 l/m 0,0 km/h (0 Bft) N 0,00 h 0,0 UV-I 0 W/m -5,3 C -3,0 C 0,0 km/h (0 Bft)
30.12.2016 20:00 24,1 C -3,8 C 54 % 88 % 1039,1 hPa 0,0 l/m 0,0 km/h (0 Bft) N 0,00 h 0,0 UV-I 0 W/m -5,6 C -3,8 C 0,0 km/h (0 Bft)
30.12.2016 21:00 24,2 C -4,3 C 55 % 89 % 1039,2 hPa 0,0 l/m 0,0 km/h (0 Bft) N 0,00 h 0,0 UV-I 0 W/m -5,8 C -4,3 C 0,0 km/h (0 Bft)
30.12.2016 22:00 24,3 C -5,1 C 55 % 90 % 1039,0 hPa 0,0 l/m 0,0 km/h (0 Bft) N 0,00 h 0,0 UV-I 0 W/m -6,5 C -5,1 C 0,0 km/h (0 Bft)
30.12.2016 23:00 24,2 C -5,7 C 55 % 90 % 1038,7 hPa 0,0 l/m 0,0 km/h (0 Bft) N 0,00 h 0,0 UV-I 0 W/m -7,1 C -5,7 C 0,0 km/h (0 Bft)
31.12.2016 00:00 24,1 C -6,2 C 55 % 91 % 1038,5 hPa 0,0 l/m 0,0 km/h (0 Bft) N 0,00 h 0,0 UV-I 0 W/m -7,5 C -6,2 C 0,0 km/h (0 Bft)
31.12.2016 01:00 24,0 C -6,5 C 56 % 91 % 1038,1 hPa 0,0 l/m 0,0 km/h (0 Bft) N 0,00 h 0,0 UV-I 0 W/m -7,7 C -6,5 C 0,0 km/h (0 Bft)
31.12.2016 02:00 24,2 C -6,9 C 56 % 91 % 1037,9 hPa 0,0 l/m 0,0 km/h (0 Bft) N 0,00 h 0,0 UV-I 0 W/m -8,1 C -6,9 C 0,0 km/h (0 Bft)
31.12.2016 03:00 24,2 C -7,3 C 56 % 91 % 1037,4 hPa 0,0 l/m 0,0 km/h (0 Bft) N 0,00 h 0,0 UV-I 0 W/m -8,5 C -7,3 C 0,0 km/h (0 Bft)
31.12.2016 04:00 24,2 C -7,8 C 56 % 91 % 1037,0 hPa 0,0 l/m 0,0 km/h (0 Bft) N 0,00 h 0,0 UV-I 0 W/m -9,0 C -7,8 C 0,0 km/h (0 Bft)
31.12.2016 05:00 24,1 C -8,2 C 56 % 91 % 1036,8 hPa 0,0 l/m 0,0 km/h (0 Bft) N 0,00 h 0,0 UV-I 0 W/m -9,4 C -8,2 C 0,0 km/h (0 Bft)
31.12.2016 06:00 24,1 C -8,3 C 56 % 91 % 1036,6 hPa 0,0 l/m 0,0 km/h (0 Bft) N 0,00 h 0,0 UV-I 0 W/m -9,5 C -8,3 C 0,0 km/h (0 Bft)
31.12.2016 07:00 23,9 C -8,6 C 56 % 91 % 1036,6 hPa 0,0 l/m 0,0 km/h (0 Bft) N 0,00 h 0,0 UV-I 0 W/m -9,8 C -8,6 C 0,0 km/h (0 Bft)
31.12.2016 08:00 23,7 C -8,5 C 56 % 92 % 1036,6 hPa 0,0 l/m 0,0 km/h (0 Bft) N 0,00 h 0,0 UV-I 22 W/m -9,6 C -8,5 C 0,0 km/h (0 Bft)
31.12.2016 09:00 23,7 C -5,8 C 57 % 92 % 1036,7 hPa 0,0 l/m 0,0 km/h (0 Bft) N 0,02 h 0,5 UV-I 115 W/m -6,9 C -5,8 C 0,0 km/h (0 Bft)
31.12.2016 10:00 23,8 C -3,0 C 58 % 88 % 1036,5 hPa 0,0 l/m 0,0 km/h (0 Bft) N 1,00 h 0,6 UV-I 200 W/m -4,7 C -3,0 C 0,0 km/h (0 Bft)
31.12.2016 11:00 23,8 C -0,7 C 57 % 84 % 1035,9 hPa 0,0 l/m 0,0 km/h (0 Bft) N 1,00 h 0,8 UV-I 273 W/m -3,1 C -0,7 C 0,0 km/h (0 Bft)
31.12.2016 12:00 23,7 C 0,6 C 55 % 77 % 1035,2 hPa 0,0 l/m 0,1 km/h (0 Bft) SW 1,00 h 0,9 UV-I 286 W/m -2,9 C 0,6 C 1,4 km/h (1 Bft)
31.12.2016 13:00 23,8 C 1,2 C 53 % 71 % 1034,6 hPa 0,0 l/m 0,7 km/h (0 Bft) W-SW 1,00 h 0,7 UV-I 243 W/m -3,5 C 1,2 C 3,0 km/h (1 Bft)
31.12.2016 14:00 23,8 C 1,0 C 52 % 71 % 1034,0 hPa 0,0 l/m 1,3 km/h (1 Bft) SW 0,17 h 0,5 UV-I 120 W/m -3,6 C 1,0 C 4,1 km/h (1 Bft)
31.12.2016 15:00 23,8 C -0,2 C 50 % 78 % 1033,7 hPa 0,0 l/m 1,7 km/h (1 Bft) SW 0,00 h 0,0 UV-I 49 W/m -3,6 C -0,2 C 4,5 km/h (1 Bft)
31.12.2016 16:00 23,7 C -1,8 C 50 % 83 % 1033,7 hPa 0,0 l/m 1,8 km/h (1 Bft) S-SW 0,00 h 0,0 UV-I 10 W/m -4,3 C -1,8 C 4,1 km/h (1 Bft)
31.12.2016 17:00 23,8 C -3,2 C 51 % 86 % 1033,5 hPa 0,0 l/m 3,3 km/h (1 Bft) S 0,00 h 0,0 UV-I 0 W/m -5,1 C -3,2 C 5,2 km/h (1 Bft)
31.12.2016 18:00 23,8 C -4,3 C 52 % 89 % 1033,1 hPa 0,0 l/m 2,1 km/h (1 Bft) SO 0,00 h 0,0 UV-I 0 W/m -5,9 C -4,3 C 3,3 km/h (1 Bft)
31.12.2016 19:00 23,9 C -5,4 C 53 % 90 % 1032,8 hPa 0,0 l/m 0,1 km/h (0 Bft) SO 0,00 h 0,0 UV-I 0 W/m -6,8 C -5,4 C 0,3 km/h (0 Bft)
31.12.2016 20:00 23,9 C -6,2 C 54 % 91 % 1032,5 hPa 0,0 l/m 2,3 km/h (1 Bft) S-SO 0,00 h 0,0 UV-I 0 W/m -7,4 C -6,2 C 3,6 km/h (1 Bft)
31.12.2016 21:00 24,1 C -6,3 C 55 % 93 % 1032,1 hPa 0,0 l/m 1,0 km/h (0 Bft) S-SO 0,00 h 0,0 UV-I 0 W/m -7,3 C -6,3 C 2,1 km/h (1 Bft)
31.12.2016 22:00 24,3 C -6,7 C 55 % 93 % 1031,5 hPa 0,0 l/m 2,3 km/h (1 Bft) S 0,00 h 0,0 UV-I 0 W/m -7,6 C -6,7 C 3,6 km/h (1 Bft)
31.12.2016 23:00 24,2 C -7,1 C 54 % 93 % 1030,9 hPa 0,0 l/m 3,4 km/h (1 Bft) S-SO 0,00 h 0,0 UV-I 0 W/m -8,0 C -7,1 C 5,2 km/h (1 Bft)
01.01.2017 00:00 24,2 C -7,3 C 55 % 94 % 1030,2 hPa 0,0 l/m 2,2 km/h (1 Bft) SO 0,00 h 0,0 UV-I 0 W/m -8,1 C -7,3 C 3,9 km/h (1 Bft)
01.01.2017 01:00 24,0 C -7,4 C 55 % 93 % 1029,4 hPa 0,0 l/m 2,7 km/h (1 Bft) S-SO 0,00 h 0,0 UV-I 0 W/m -8,3 C -7,5 C 4,1 km/h (1 Bft)
01.01.2017 02:00 24,0 C -7,7 C 56 % 93 % 1028,7 hPa 0,0 l/m 2,5 km/h (1 Bft) SO 0,00 h 0,0 UV-I 0 W/m -8,6 C -7,7 C 4,0 km/h (1 Bft)
01.01.2017 03:00 24,1 C -7,8 C 55 % 93 % 1028,0 hPa 0,0 l/m 2,1 km/h (1 Bft) SO 0,00 h 0,0 UV-I 0 W/m -8,7 C -7,8 C 3,5 km/h (1 Bft)
01.01.2017 04:00 24,1 C -8,0 C 56 % 93 % 1027,5 hPa 0,0 l/m 1,9 km/h (1 Bft) S-SO 0,00 h 0,0 UV-I 0 W/m -8,9 C -8,0 C 3,0 km/h (1 Bft)
01.01.2017 05:00 23,9 C -8,3 C 56 % 93 % 1027,0 hPa 0,0 l/m 2,9 km/h (1 Bft) S-SO 0,00 h 0,0 UV-I 0 W/m -9,2 C -8,3 C 4,2 km/h (1 Bft)
01.01.2017 06:00 23,8 C -8,3 C 56 % 93 % 1026,5 hPa 0,0 l/m 2,4 km/h (1 Bft) S-SO 0,00 h 0,0 UV-I 0 W/m -9,2 C -8,3 C 3,9 km/h (1 Bft)
01.01.2017 07:00 23,5 C -8,6 C 56 % 93 % 1026,1 hPa 0,0 l/m 1,1 km/h (1 Bft) S 0,00 h 0,0 UV-I 0 W/m -9,6 C -8,6 C 2,2 km/h (1 Bft)
01.01.2017 08:00 23,3 C -8,6 C 56 % 93 % 1025,7 hPa 0,0 l/m 2,2 km/h (1 Bft) S-SO 0,00 h 0,0 UV-I 12 W/m -9,6 C -8,6 C 3,5 km/h (1 Bft)
01.01.2017 09:00 23,3 C -8,0 C 57 % 93 % 1025,4 hPa 0,0 l/m 1,4 km/h (1 Bft) S-SO 0,00 h 0,0 UV-I 56 W/m -8,9 C -8,0 C 2,7 km/h (1 Bft)
01.01.2017 10:00 23,3 C -6,9 C 56 % 94 % 1025,3 hPa 0,0 l/m 2,8 km/h (1 Bft) S 0,07 h 0,5 UV-I 113 W/m -7,7 C -6,9 C 4,2 km/h (1 Bft)
01.01.2017 11:00 23,4 C -5,4 C 55 % 93 % 1024,4 hPa 0,0 l/m 1,1 km/h (1 Bft) S 0,83 h 0,8 UV-I 223 W/m -6,3 C -5,4 C 3,0 km/h (1 Bft)
01.01.2017 12:00 23,6 C -4,9 C 55 % 91 % 1023,4 hPa 0,0 l/m 3,4 km/h (1 Bft) S 0,47 h 0,7 UV-I 168 W/m -6,1 C -4,9 C 6,1 km/h (2 Bft)
01.01.2017 13:00 23,6 C -4,6 C 56 % 93 % 1022,9 hPa 0,0 l/m 3,1 km/h (1 Bft) S 0,00 h 0,6 UV-I 113 W/m -5,6 C -4,6 C 5,9 km/h (2 Bft)
01.01.2017 14:00 23,8 C -4,3 C 56 % 93 % 1022,5 hPa 0,0 l/m 3,4 km/h (1 Bft) S 0,00 h 0,0 UV-I 75 W/m -5,3 C -4,3 C 5,6 km/h (1 Bft)
01.01.2017 15:00 23,8 C -4,3 C 57 % 93 % 1022,2 hPa 0,0 l/m 4,3 km/h (1 Bft) S 0,00 h 0,0 UV-I 33 W/m -5,3 C -4,4 C 7,0 km/h (2 Bft)
01.01.2017 16:00 23,9 C -4,7 C 57 % 94 % 1022,2 hPa 0,0 l/m 4,0 km/h (1 Bft) S 0,00 h 0,0 UV-I 7 W/m -5,6 C -4,8 C 6,2 km/h (2 Bft)
01.01.2017 17:00 24,2 C -4,8 C 57 % 94 % 1022,1 hPa 0,0 l/m 3,7 km/h (1 Bft) S 0,00 h 0,0 UV-I 0 W/m -5,6 C -4,9 C 6,4 km/h (2 Bft)
01.01.2017 18:00 24,2 C -4,8 C 56 % 95 % 1021,9 hPa 0,0 l/m 2,4 km/h (1 Bft) S 0,00 h 0,0 UV-I 0 W/m -5,5 C -4,8 C 4,4 km/h (1 Bft)
01.01.2017 19:00 24,1 C -4,9 C 57 % 95 % 1021,6 hPa 0,0 l/m 3,7 km/h (1 Bft) S-SO 0,00 h 0,0 UV-I 0 W/m -5,5 C -4,9 C 6,3 km/h (2 Bft)
01.01.2017 20:00 24,0 C -5,1 C 57 % 95 % 1021,5 hPa 0,0 l/m 2,3 km/h (1 Bft) SW 0,00 h 0,0 UV-I 0 W/m -5,8 C -5,1 C 3,8 km/h (1 Bft)
01.01.2017 21:00 23,9 C -5,4 C 57 % 95 % 1021,7 hPa 0,0 l/m 2,0 km/h (1 Bft) S-SW 0,00 h 0,0 UV-I 0 W/m -6,1 C -5,4 C 3,7 km/h (1 Bft)
01.01.2017 22:00 24,2 C -5,9 C 57 % 95 % 1021,4 hPa 0,0 l/m 0,5 km/h (0 Bft) S 0,00 h 0,0 UV-I 0 W/m -6,6 C -5,9 C 1,0 km/h (0 Bft)
01.01.2017 23:00 24,2 C -6,5 C 57 % 94 % 1021,1 hPa 0,0 l/m 0,0 km/h (0 Bft) N 0,00 h 0,0 UV-I 0 W/m -7,3 C -6,5 C 0,0 km/h (0 Bft)
Min-Datum _ 28.12.16 31.12.16 28.12.16 30.12.16 01.01.17 - 26.12.16 - - - - 31.12.16 01.01.17 26.12.16
_ Min-Zeit 12:51 08:14 12:42 15:12 23:31 - 01:22 - - - - 08:14 01:43 01:28
Minimum _ 23,1 C -8,8 C 44 % 55 % 1021,0 hPa - 0,0 km/h (0 Bft) - - - - -10,0 C -9,5 C 0,0 km/h (0 Bft)
Max-Datum _ 27.12.16 26.12.16 26.12.16 26.12.16 29.12.16 26.12.16 26.12.16 - 01.01.17 30.12.16 29.12.16 26.12.16 26.12.16 26.12.16
_ Max-Zeit 22:44 11:07 04:18 00:00 10:27 01:27 17:06 - 11:07 11:55 11:23 11:06 11:10 17:05
Maximum _ 24,8 C 7,2 C 63 % 97 % 1042,6 hPa 0,2 l/m 24,1 km/h
W (4 Bft)
- 0,08 h 0,9 UV-I 388 W/m 6,5 C 7,1 C 32,2 km/h
W (5 Bft)
Durchschnitt _ 24,1 C -0,2 C 57 % 90 % 1034,9 hPa #1,4 l/m 3,8 km/h (1 Bft) W-SW #11:34 h 0,6 UV-I 82 W/m -1,7 C -1,0 C 6,4 km/h (2 Bft)